Weather History for Kansas City International, MO

Change the Weather History Date:

Friday, January 6, 2012

  Actual Average Record
Temperature  
Mean Temperature 48 °F 29 °F  
Max Temperature 57 °F 38 °F 64 °F (1939)
Min Temperature 38 °F 20 °F -13 °F (1912)
Degree Days  
Heating Degree Days 17 36  
Month to date heating degree days 157 216  
Since 1 July heating degree days 1973 2258  
Cooling Degree Days 0 0  
Month to date cooling degree days 0 0  
Year to date cooling degree days 0 0  
Moisture  
Dew Point 29 °F    
Average Humidity 48    
Maximum Humidity 65    
Minimum Humidity 30    
Precipitation  
Precipitation 0.00 in 0.03 in 0.45 in (1916)
Month to date precipitation 0.02 0.20  
Year to date precipitation 0.02 0.20  
Snow  
Snow 0.00 in 0.10 in 5.00 in (1916)
Month to date snowfall 0.0 0.8  
Since 1 July snowfall 0.1 7.0  
Snow Depth 0.00 in    
Sea Level Pressure  
Sea Level Pressure 29.85 in    
Wind  
Wind Speed 11 mph (West)    
Max Wind Speed 17 mph    
Max Gust Speed 24 mph    
Visibility 10 miles    
Events      
T = Trace of Precipitation, MM = Missing Value Source: NWS Daily Summary

Daily Weather History Graph

Daily Weather History Graph

Search for Another Location

Airport:

Trip Planner

Search our weather history database for the weather conditions in past years. The results will help you decide how hot, cold, wet, or windy it might be!

Date:

Astronomy

Jan. 06, 2012 Rise Set
Actual Time 7:38 AM CST 5:10 PM CST
Civil Twilight 7:09 AM CST 5:40 PM CST
Nautical Twilight 6:35 AM CST 6:13 PM CST
Astronomical Twilight 6:03 AM CST 6:46 PM CST
Moon 3:02 PM CST (1/6) 5:19 AM CST (1/6)
Length of Visible Light 10h 31m
Length of Day
9h 31m
Waxing Gibbous, 93% of the Moon is Illuminated
Jan 6
Waxing Gibbous
Jan 9
Full
Jan 16
Last Quarter
Jan 23
New
Jan 30
First Quarter

Hourly Weather History & Observations

Time (CST) Temp. Windchill Dew Point Humidity Pressure Visibility Wind Dir Wind Speed Gust Speed Precip Events Conditions
12:53 AM 48.0 °F - 32.0 °F 54% 29.79 in 10.0 mi SW 12.7 mph - N/A   Clear
1:53 AM 42.8 °F 37.0 °F 30.2 °F 61% 29.79 in 10.0 mi SSW 10.4 mph - N/A   Clear
2:53 AM 44.1 °F 37.7 °F 30.9 °F 60% 29.77 in 10.0 mi SSW 12.7 mph - N/A   Clear
3:53 AM 45.0 °F 38.2 °F 30.9 °F 58% 29.76 in 10.0 mi SSW 15.0 mph - N/A   Clear
4:53 AM 43.0 °F 35.7 °F 30.9 °F 62% 29.75 in 10.0 mi SSW 15.0 mph - N/A   Clear
5:53 AM 43.0 °F 36.4 °F 30.9 °F 62% 29.74 in 10.0 mi SSW 12.7 mph - N/A   Clear
6:53 AM 42.1 °F 35.2 °F 30.9 °F 65% 29.74 in 10.0 mi SSW 12.7 mph - N/A   Clear
7:53 AM 41.0 °F 33.5 °F 30.9 °F 67% 29.75 in 10.0 mi SSW 13.8 mph - N/A   Partly Cloudy
8:53 AM 44.1 °F 39.0 °F 30.9 °F 60% 29.78 in 10.0 mi SSW 9.2 mph - N/A   Partly Cloudy
9:53 AM 46.9 °F - 30.9 °F 54% 29.79 in 10.0 mi WSW 10.4 mph - N/A   Scattered Clouds
10:53 AM 50.0 °F - 30.9 °F 48% 29.80 in 10.0 mi SW 10.4 mph - N/A   Mostly Cloudy
11:53 AM 53.6 °F - 30.2 °F 41% 29.79 in 10.0 mi West 6.9 mph - N/A   Mostly Cloudy
12:53 PM 55.0 °F - 32.0 °F 42% 29.78 in 10.0 mi West 8.1 mph - N/A   Mostly Cloudy
1:53 PM 54.0 °F - 32.0 °F 43% 29.79 in 10.0 mi NW 9.2 mph - N/A   Mostly Cloudy
2:53 PM 55.9 °F - 33.1 °F 42% 29.82 in 10.0 mi North 6.9 mph - N/A   Scattered Clouds
3:53 PM 57.0 °F - 27.0 °F 32% 29.83 in 10.0 mi North 16.1 mph - N/A   Partly Cloudy
4:53 PM 53.1 °F - 26.1 °F 35% 29.87 in 9.0 mi North 11.5 mph - N/A   Scattered Clouds
5:53 PM 50.0 °F - 24.1 °F 36% 29.91 in 10.0 mi North 10.4 mph - N/A   Scattered Clouds
6:53 PM 46.0 °F 40.2 °F 25.0 °F 44% 29.95 in 10.0 mi North 12.7 mph - N/A   Scattered Clouds
7:53 PM 45.0 °F 40.6 °F 24.1 °F 44% 29.99 in 10.0 mi NNW 8.1 mph - N/A   Mostly Cloudy
8:53 PM 45.0 °F 40.1 °F 26.1 °F 48% 30.01 in 10.0 mi NNW 9.2 mph - N/A   Overcast
9:53 PM 45.0 °F 38.9 °F 25.0 °F 46% 30.02 in 10.0 mi NNW 12.7 mph - N/A   Mostly Cloudy
10:53 PM 43.0 °F 37.2 °F 25.0 °F 49% 30.04 in 10.0 mi NNW 10.4 mph - N/A   Mostly Cloudy
11:53 PM 37.9 °F 32.7 °F 24.1 °F 57% 30.05 in 10.0 mi NNW 6.9 mph - N/A   Scattered Clouds